KC5KKT Weather Reports


time (UTC)temp
F
wind
direction
speed
knots
gust
knots
rain 1hr
in
rain 24hr
in
rain mn
in
humidity
%
barometer
mb
20260506103038 51 13 9.6 15.6 0.00 0.00 0.00 85 1012.7
20260506101538 51 333 9.6 15.6 0.00 0.00 0.00 85 1012.2
20260506100047 51 347 11.3 16.5 0.00 0.00 0.00 84 1012.1
20260506094545 52 20 7.8 17.4 0.00 0.00 0.00 83 1011.9
20260506093101 52 15 9.6 14.8 0.00 0.00 0.00 82 1011.6
20260506091535 52 338 7.0 14.8 0.00 0.00 0.00 81 1011.4
20260506090040 53 338 7.8 12.2 0.00 0.00 0.00 81 1011.2
20260506084537 53 20 7.8 13.0 0.00 0.00 0.00 80 1011.0
20260506083045 53 13 7.0 10.4 0.00 0.00 0.00 79 1011.1
20260506081540 53 324 7.0 12.2 0.00 0.00 0.00 80 1010.9
20260506073039 54 359 8.7 13.9 0.00 0.00 0.00 79 1010.9
20260506071537 54 353 9.6 13.9 0.00 0.00 0.00 79 1010.5
20260506061552 54 41 8.7 13.9 0.00 0.00 0.00 80 1010.5
20260506044543 55 320 7.0 13.0 0.00 0.00 0.00 81 1010.7
20260506043039 55 356 8.7 15.6 0.00 0.00 0.00 81 1010.7
20260506041542 56 330 7.8 13.0 0.00 0.00 0.00 82 1010.6
20260506040040 56 28 10.4 17.4 0.00 0.00 0.00 82 1010.3
20260506034536 57 21 11.3 16.5 0.00 0.00 0.00 82 1010.6
20260506033049 57 5 11.3 15.6 0.00 0.00 0.00 82 1010.4
20260506031542 57 5 7.8 14.8 0.00 0.00 0.00 83 1010.1
20260506030040 57 19 7.8 13.0 0.00 0.00 0.00 84 1010.1
20260506024537 58 2 7.8 15.6 0.00 0.00 0.00 84 1009.8
20260506023049 58 4 7.8 18.2 0.00 0.00 0.00 85 1009.4
20260506021540 58 343 12.2 17.4 0.00 0.00 0.00 84 1008.6
20260506020108 59 10 11.3 18.2 0.00 0.00 0.00 84 1007.7
20260506014534 59 348 11.3 17.4 0.00 0.00 0.00 84 1007.7
20260506013034 60 330 11.3 17.4 0.00 0.00 0.00 84 1007.4
20260506011541 61 18 8.7 17.4 0.00 0.00 0.00 84 1007.1
20260506010040 62 345 11.3 17.4 0.00 0.00 0.00 82 1006.4
20260506004542 63 337 11.3 16.5 0.00 0.00 0.00 81 1006.8
20260506003035 64 349 10.4 16.5 0.00 0.00 0.00 80 1006.5
20260506001544 66 3 11.3 16.5 0.00 0.00 0.00 79 1006.1
20260506000056 67 317 7.8 12.2 0.00 0.00 0.00 79 1006.1
20260505234542 67 324 7.0 12.2 0.00 0.00 0.00 78 1006.5
20260505233034 68 304 7.0 16.5 0.00 0.00 0.00 78 1006.0
20260505231538 69 326 6.1 14.8 0.00 0.00 0.00 76 1005.9
20260505230049 70 318 4.3 13.0 0.00 0.00 0.00 75 1006.1
20260505224546 71 343 4.3 11.3 0.00 0.00 0.00 75 1006.0
20260505223039 72 342 3.5 10.4 0.00 0.00 0.00 74 1005.7
20260505221547 72 352 6.1 12.2 0.00 0.00 0.00 73 1005.3
20260505220058 73 295 6.1 13.9 0.00 0.00 0.00 73 1005.0
20260505214546 75 306 5.2 12.2 0.00 0.00 0.00 70 1005.0
20260505213039 77 326 3.5 9.6 0.00 0.00 0.00 68 1004.7
20260505211604 77 303 2.6 11.3 0.00 0.00 0.00 68 1005.0
20260505210043 79 302 3.5 8.7 0.00 0.00 0.00 65 1005.1
20260505204555 81 277 4.3 9.6 0.00 0.00 0.00 64 1005.0
20260505203039 83 274 3.5 13.9 0.00 0.00 0.00 60 1004.8
20260505201542 82 255 5.2 13.0 0.00 0.00 0.00 57 1004.7
20260505200039 82 283 7.0 13.9 0.00 0.00 0.00 50 1004.8
20260505194539 81 273 4.3 11.3 0.00 0.00 0.00 52 1004.6
20260505193044 82 265 3.5 17.4 0.00 0.00 0.00 50 1004.6
20260505191537 83 224 10.4 20.9 0.00 0.00 0.00 63 1004.4
20260505190041 82 234 7.8 13.9 0.00 0.00 0.00 70 1004.2
20260505184542 81 253 8.7 16.5 0.00 0.00 0.00 68 1004.2
20260505183038 81 219 9.6 17.4 0.00 0.00 0.00 68 1004.0
20260505181552 81 229 11.3 15.6 0.00 0.00 0.00 67 1004.2
20260505180037 81 201 8.7 14.8 0.00 0.00 0.00 68 1004.3
20260505174543 81 208 10.4 17.4 0.00 0.00 0.00 68 1004.2
20260505173039 82 230 7.8 16.5 0.00 0.00 0.00 69 1004.2
20260505171541 80 220 11.3 18.2 0.00 0.00 0.00 70 1004.3
20260505170044 79 199 7.8 17.4 0.00 0.00 0.00 76 1003.9
20260505164540 78 214 7.0 14.8 0.00 0.00 0.00 75 1003.8
20260505163040 77 156 7.0 13.0 0.00 0.00 0.00 78 1003.9
20260505161538 76 197 7.0 13.0 0.00 0.00 0.00 79 1003.8
20260505153046 75 173 7.8 14.8 0.00 0.00 0.00 79 1003.4
20260505151538 75 221 9.6 18.2 0.00 0.00 0.00 79 1003.4
20260505124557 69 189 8.7 13.9 0.00 0.00 0.00 90 1002.7
20260505123059 69 193 8.7 15.6 0.00 0.00 0.00 91 1002.5
20260505121538 68 174 8.7 17.4 0.00 0.00 0.00 91 1002.5
20260505120059 68 171 9.6 15.6 0.00 0.00 0.00 91 1002.2
20260505114544 68 170 11.3 14.8 0.00 0.00 0.00 91 1002.2
20260505113039 68 161 8.7 13.9 0.00 0.00 0.00 90 1002.2
20260505111539 69 169 9.6 14.8 0.00 0.00 0.00 90 1002.2